Time,TemperatureF,DewpointF,PressureIn,WindDirection,WindDirectionDegrees,WindSpeedMPH,WindSpeedGustMPH,Humidity,HourlyPrecipIn,Conditions,Clouds,dailyrainin,SolarRadiationWatts/m^2,SoftwareType,DateUTC
2013-02-26 00:10:00,41.2,38.0,30.23,SSW,198,0.0,0.0,88,0.00,,,0.00,0,weatherlink.com 1.10,2013-02-26 08:10:00,
2013-02-26 00:25:00,41.2,38.0,30.23,SSW,198,0.0,2.0,88,0.00,,,0.00,0,weatherlink.com 1.10,2013-02-26 08:25:00,
2013-02-26 00:40:00,40.6,37.0,30.23,SSW,198,0.0,0.0,88,0.00,,,0.00,0,weatherlink.com 1.10,2013-02-26 08:40:00,
2013-02-26 00:55:00,40.2,37.0,30.23,SSW,198,0.0,0.0,88,0.00,,,0.00,0,weatherlink.com 1.10,2013-02-26 08:55:00,
2013-02-26 01:10:00,40.1,37.0,30.22,SSW,198,0.0,0.0,89,0.00,,,0.00,0,weatherlink.com 1.10,2013-02-26 09:10:00,
2013-02-26 01:25:00,40.0,37.0,30.22,SSW,198,0.0,0.0,89,0.00,,,0.00,0,weatherlink.com 1.10,2013-02-26 09:25:00,
2013-02-26 01:40:00,39.1,37.0,30.22,SSW,198,0.0,1.0,90,0.00,,,0.00,0,weatherlink.com 1.10,2013-02-26 09:40:00,
2013-02-26 01:55:00,38.7,36.0,30.22,SSW,198,0.0,1.0,90,0.00,,,0.00,0,weatherlink.com 1.10,2013-02-26 09:55:00,
2013-02-26 02:10:00,38.6,36.0,30.22,SSW,198,0.0,2.0,90,0.00,,,0.00,0,weatherlink.com 1.10,2013-02-26 10:10:00,
2013-02-26 02:25:00,38.0,36.0,30.22,SSW,198,0.0,0.0,91,0.00,,,0.00,0,weatherlink.com 1.10,2013-02-26 10:25:00,
2013-02-26 02:40:00,38.0,36.0,30.21,SSW,198,0.0,0.0,91,0.00,,,0.00,0,weatherlink.com 1.10,2013-02-26 10:40:00,
2013-02-26 02:55:00,37.9,35.0,30.21,SSW,198,0.0,0.0,90,0.00,,,0.00,0,weatherlink.com 1.10,2013-02-26 10:55:00,
2013-02-26 03:10:00,37.9,35.0,30.21,SSW,198,0.0,0.0,90,0.00,,,0.00,0,weatherlink.com 1.10,2013-02-26 11:10:00,
2013-02-26 03:25:00,37.4,35.0,30.20,SSW,198,0.0,0.0,90,0.00,,,0.00,0,weatherlink.com 1.10,2013-02-26 11:25:00,
2013-02-26 03:40:00,37.3,34.0,30.21,SSW,198,0.0,2.0,89,0.00,,,0.00,0,weatherlink.com 1.10,2013-02-26 11:40:00,
2013-02-26 03:55:00,36.6,34.0,30.21,SSW,198,2.0,3.0,91,0.00,,,0.00,0,weatherlink.com 1.10,2013-02-26 11:55:00,
2013-02-26 04:10:00,37.4,35.0,30.21,SSW,194,4.0,5.0,92,0.00,,,0.00,0,weatherlink.com 1.10,2013-02-26 12:10:00,
2013-02-26 04:25:00,37.2,35.0,30.20,SSE,162,3.0,5.0,91,0.00,,,0.00,0,weatherlink.com 1.10,2013-02-26 12:25:00,
2013-02-26 04:40:00,36.9,35.0,30.20,SSE,159,4.0,5.0,92,0.00,,,0.00,0,weatherlink.com 1.10,2013-02-26 12:40:00,
2013-02-26 04:55:00,36.9,35.0,30.20,SSE,149,2.0,4.0,92,0.00,,,0.00,0,weatherlink.com 1.10,2013-02-26 12:55:00,
2013-02-26 05:10:00,37.3,35.0,30.20,SSE,152,0.0,3.0,92,0.00,,,0.00,0,weatherlink.com 1.10,2013-02-26 13:10:00,
2013-02-26 05:25:00,36.8,35.0,30.20,SSE,152,0.0,0.0,91,0.00,,,0.00,0,weatherlink.com 1.10,2013-02-26 13:25:00,
2013-02-26 05:40:00,36.6,34.0,30.20,ESE,121,0.0,3.0,91,0.00,,,0.00,0,weatherlink.com 1.10,2013-02-26 13:40:00,
2013-02-26 05:55:00,36.5,34.0,30.21,SE,138,4.0,4.0,91,0.00,,,0.00,0,weatherlink.com 1.10,2013-02-26 13:55:00,
2013-02-26 06:10:00,36.6,35.0,30.21,SSE,156,2.0,4.0,92,0.00,,,0.00,0,weatherlink.com 1.10,2013-02-26 14:10:00,
2013-02-26 06:25:00,36.7,34.0,30.21,SSE,156,0.0,2.0,91,0.00,,,0.00,0,weatherlink.com 1.10,2013-02-26 14:25:00,
2013-02-26 06:40:00,36.9,35.0,30.21,South,181,0.0,5.0,92,0.00,,,0.00,0,weatherlink.com 1.10,2013-02-26 14:40:00,
2013-02-26 06:55:00,37.0,35.0,30.21,South,179,2.0,4.0,91,0.00,,,0.00,12,weatherlink.com 1.10,2013-02-26 14:55:00,
2013-02-26 07:11:00,37.4,35.0,30.21,SSE,149,3.0,9.0,90,0.00,,,0.00,67,weatherlink.com 1.10,2013-02-26 15:11:00,
2013-02-26 07:26:00,39.5,36.0,30.21,SE,142,1.0,4.0,86,0.00,,,0.00,120,weatherlink.com 1.10,2013-02-26 15:26:00,
2013-02-26 07:41:00,40.0,35.0,30.21,SSE,159,4.0,7.0,83,0.00,,,0.00,176,weatherlink.com 1.10,2013-02-26 15:41:00,
2013-02-26 07:56:00,41.4,36.0,30.21,SSE,162,6.0,8.0,81,0.00,,,0.00,237,weatherlink.com 1.10,2013-02-26 15:56:00,
2013-02-26 08:11:00,43.7,36.0,30.22,SSW,198,7.0,9.0,73,0.00,,,0.00,292,weatherlink.com 1.10,2013-02-26 16:11:00,
2013-02-26 08:26:00,45.7,35.0,30.22,SSE,161,6.0,6.0,67,0.00,,,0.00,360,weatherlink.com 1.10,2013-02-26 16:26:00,
2013-02-26 08:41:00,47.9,34.0,30.22,SSE,157,5.0,10.0,60,0.00,,,0.00,420,weatherlink.com 1.10,2013-02-26 16:41:00,
2013-02-26 08:56:00,49.9,35.0,30.22,South,173,3.0,8.0,57,0.00,,,0.00,469,weatherlink.com 1.10,2013-02-26 16:56:00,
2013-02-26 09:11:00,51.4,34.0,30.22,SSE,161,4.0,7.0,51,0.00,,,0.00,513,weatherlink.com 1.10,2013-02-26 17:11:00,
2013-02-26 09:26:00,53.8,32.0,30.22,SW,234,2.0,8.0,43,0.00,,,0.00,552,weatherlink.com 1.10,2013-02-26 17:26:00,
2013-02-26 09:41:00,56.3,26.0,30.21,NNW,333,5.0,12.0,31,0.00,,,0.00,589,weatherlink.com 1.10,2013-02-26 17:41:00,
2013-02-26 09:56:00,57.6,25.0,30.21,North,11,9.0,12.0,29,0.00,,,0.00,628,weatherlink.com 1.10,2013-02-26 17:56:00,
2013-02-26 10:11:00,58.4,24.0,30.20,NNW,344,4.0,12.0,27,0.00,,,0.00,656,weatherlink.com 1.10,2013-02-26 18:11:00,
2013-02-26 10:27:00,59.5,22.0,30.21,North,5,3.0,10.0,24,0.00,,,0.00,680,weatherlink.com 1.10,2013-02-26 18:27:00,
2013-02-26 10:43:00,60.3,20.0,30.20,NNW,342,10.0,14.0,21,0.00,,,0.00,710,weatherlink.com 1.10,2013-02-26 18:43:00,
2013-02-26 10:57:00,60.5,20.0,30.20,NE,42,8.0,16.0,21,0.00,,,0.00,724,weatherlink.com 1.10,2013-02-26 18:57:00,
2013-02-26 11:12:00,61.2,21.0,30.19,North,355,14.0,17.0,21,0.00,,,0.00,745,weatherlink.com 1.10,2013-02-26 19:12:00,
2013-02-26 11:27:00,61.6,22.0,30.20,NE,47,8.0,12.0,22,0.00,,,0.00,747,weatherlink.com 1.10,2013-02-26 19:27:00,
2013-02-26 11:42:00,62.6,23.0,30.20,North,350,3.0,12.0,22,0.00,,,0.00,745,weatherlink.com 1.10,2013-02-26 19:42:00,
2013-02-26 11:57:00,63.2,22.0,30.20,North,351,3.0,11.0,21,0.00,,,0.00,747,weatherlink.com 1.10,2013-02-26 19:57:00,
2013-02-26 12:12:00,63.8,19.0,30.19,North,360,6.0,12.0,18,0.00,,,0.00,754,weatherlink.com 1.10,2013-02-26 20:12:00,
2013-02-26 12:27:00,63.7,22.0,30.19,North,5,13.0,14.0,20,0.00,,,0.00,751,weatherlink.com 1.10,2013-02-26 20:27:00,
2013-02-26 12:42:00,64.4,21.0,30.18,North,349,4.0,15.0,19,0.00,,,0.00,745,weatherlink.com 1.10,2013-02-26 20:42:00,
2013-02-26 12:57:00,64.7,20.0,30.17,NNW,344,11.0,14.0,18,0.00,,,0.00,726,weatherlink.com 1.10,2013-02-26 20:57:00,
2013-02-26 13:12:00,65.2,20.0,30.17,NW,325,12.0,15.0,18,0.00,,,0.00,712,weatherlink.com 1.10,2013-02-26 21:12:00,
2013-02-26 13:27:00,65.4,21.0,30.16,NNW,334,7.0,15.0,18,0.00,,,0.00,689,weatherlink.com 1.10,2013-02-26 21:27:00,
2013-02-26 13:42:00,66.4,20.0,30.16,NNW,344,9.0,11.0,17,0.00,,,0.00,659,weatherlink.com 1.10,2013-02-26 21:42:00,
2013-02-26 13:57:00,65.7,20.0,30.16,NW,317,7.0,13.0,17,0.00,,,0.00,635,weatherlink.com 1.10,2013-02-26 21:57:00,
2013-02-26 14:12:00,66.4,20.0,30.16,North,360,9.0,12.0,17,0.00,,,0.00,596,weatherlink.com 1.10,2013-02-26 22:12:00,
2013-02-26 14:27:00,67.0,21.0,30.16,NNE,18,3.0,11.0,17,0.00,,,0.00,561,weatherlink.com 1.10,2013-02-26 22:27:00,
2013-02-26 14:42:00,66.9,21.0,30.15,NNE,18,1.0,9.0,17,0.00,,,0.00,520,weatherlink.com 1.10,2013-02-26 22:42:00,
2013-02-26 14:57:00,67.9,23.0,30.15,NNE,18,3.0,11.0,18,0.00,,,0.00,478,weatherlink.com 1.10,2013-02-26 22:57:00,
2013-02-26 15:12:00,68.2,20.0,30.15,NE,53,1.0,10.0,16,0.00,,,0.00,443,weatherlink.com 1.10,2013-02-26 23:12:00,
2013-02-26 15:27:00,68.3,22.0,30.15,NE,46,5.0,8.0,17,0.00,,,0.00,392,weatherlink.com 1.10,2013-02-26 23:27:00,
2013-02-26 15:42:00,68.2,22.0,30.14,NE,41,9.0,10.0,17,0.00,,,0.00,355,weatherlink.com 1.10,2013-02-26 23:42:00,
2013-02-26 15:57:00,68.5,22.0,30.15,NNE,26,7.0,10.0,17,0.00,,,0.00,294,weatherlink.com 1.10,2013-02-26 23:57:00,
2013-02-26 16:12:00,68.0,20.0,30.14,North,355,4.0,10.0,16,0.00,,,0.00,237,weatherlink.com 1.10,2013-02-27 00:12:00,
2013-02-26 16:27:00,68.0,21.0,30.14,NE,43,5.0,8.0,17,0.00,,,0.00,162,weatherlink.com 1.10,2013-02-27 00:27:00,
2013-02-26 16:42:00,67.2,21.0,30.14,NNE,26,1.0,8.0,17,0.00,,,0.00,93,weatherlink.com 1.10,2013-02-27 00:42:00,
2013-02-26 16:57:00,67.2,21.0,30.14,North,355,3.0,8.0,17,0.00,,,0.00,93,weatherlink.com 1.10,2013-02-27 00:57:00,
2013-02-26 17:12:00,66.6,22.0,30.14,NNW,342,2.0,7.0,18,0.00,,,0.00,67,weatherlink.com 1.10,2013-02-27 01:12:00,
2013-02-26 17:27:00,66.2,21.0,30.14,North,9,5.0,7.0,18,0.00,,,0.00,40,weatherlink.com 1.10,2013-02-27 01:27:00,
2013-02-26 17:42:00,64.7,32.0,30.14,WNW,290,6.0,9.0,30,0.00,,,0.00,25,weatherlink.com 1.10,2013-02-27 01:42:00,
2013-02-26 17:57:00,60.4,35.0,30.14,WNW,297,6.0,8.0,39,0.00,,,0.00,11,weatherlink.com 1.10,2013-02-27 01:57:00,
2013-02-26 18:12:00,58.8,36.0,30.15,WNW,296,1.0,6.0,43,0.00,,,0.00,0,weatherlink.com 1.10,2013-02-27 02:12:00,
2013-02-26 18:27:00,57.5,36.0,30.16,NW,307,1.0,8.0,45,0.00,,,0.00,0,weatherlink.com 1.10,2013-02-27 02:27:00,
2013-02-26 18:42:00,56.9,36.0,30.16,West,280,0.0,6.0,46,0.00,,,0.00,0,weatherlink.com 1.10,2013-02-27 02:42:00,
2013-02-26 18:57:00,55.7,36.0,30.17,SSW,195,0.0,7.0,48,0.00,,,0.00,0,weatherlink.com 1.10,2013-02-27 02:57:00,
2013-02-26 19:12:00,55.0,37.0,30.17,SW,215,5.0,9.0,51,0.00,,,0.00,0,weatherlink.com 1.10,2013-02-27 03:12:00,
2013-02-26 19:27:00,54.6,37.0,30.17,WSW,252,2.0,9.0,51,0.00,,,0.00,0,weatherlink.com 1.10,2013-02-27 03:27:00,
2013-02-26 19:42:00,54.3,37.0,30.18,West,275,3.0,6.0,52,0.00,,,0.00,0,weatherlink.com 1.10,2013-02-27 03:42:00,
2013-02-26 19:57:00,53.9,37.0,30.18,West,275,0.0,4.0,53,0.00,,,0.00,0,weatherlink.com 1.10,2013-02-27 03:57:00,
2013-02-26 20:12:00,52.9,36.0,30.19,West,275,0.0,4.0,54,0.00,,,0.00,0,weatherlink.com 1.10,2013-02-27 04:12:00,
2013-02-26 20:27:00,51.5,37.0,30.19,West,275,0.0,3.0,57,0.00,,,0.00,0,weatherlink.com 1.10,2013-02-27 04:27:00,
2013-02-26 20:42:00,51.1,37.0,30.20,West,275,0.0,3.0,58,0.00,,,0.00,0,weatherlink.com 1.10,2013-02-27 04:42:00,
2013-02-26 20:57:00,50.3,36.0,30.20,West,275,1.0,2.0,59,0.00,,,0.00,0,weatherlink.com 1.10,2013-02-27 04:57:00,
2013-02-26 21:12:00,47.9,37.0,30.20,West,275,2.0,2.0,65,0.00,,,0.00,0,weatherlink.com 1.10,2013-02-27 05:12:00,
2013-02-26 21:27:00,48.5,36.0,30.21,West,275,0.0,2.0,63,0.00,,,0.00,0,weatherlink.com 1.10,2013-02-27 05:27:00,
2013-02-26 21:42:00,47.3,36.0,30.21,West,275,0.0,1.0,65,0.00,,,0.00,0,weatherlink.com 1.10,2013-02-27 05:42:00,
2013-02-26 21:57:00,47.1,36.0,30.22,West,275,0.0,1.0,66,0.00,,,0.00,0,weatherlink.com 1.10,2013-02-27 05:57:00,
2013-02-26 22:12:00,46.0,36.0,30.21,West,275,0.0,2.0,69,0.00,,,0.00,0,weatherlink.com 1.10,2013-02-27 06:12:00,
2013-02-26 22:27:00,44.7,36.0,30.21,West,275,1.0,2.0,71,0.00,,,0.00,0,weatherlink.com 1.10,2013-02-27 06:27:00,
2013-02-26 22:42:00,44.6,35.0,30.22,West,275,1.0,2.0,70,0.00,,,0.00,0,weatherlink.com 1.10,2013-02-27 06:42:00,
2013-02-26 22:58:00,44.9,36.0,30.23,West,275,0.0,0.0,71,0.00,,,0.00,0,weatherlink.com 1.10,2013-02-27 06:58:00,
2013-02-26 23:13:00,43.4,35.0,30.23,West,275,0.0,1.0,73,0.00,,,0.00,0,weatherlink.com 1.10,2013-02-27 07:13:00,
2013-02-26 23:28:00,43.2,36.0,30.24,West,275,0.0,0.0,75,0.00,,,0.00,0,weatherlink.com 1.10,2013-02-27 07:28:00,
2013-02-26 23:44:00,43.3,36.0,30.24,West,275,0.0,0.0,74,0.00,,,0.00,0,weatherlink.com 1.10,2013-02-27 07:44:00,
2013-02-26 23:58:00,42.1,35.0,30.24,West,275,0.0,1.0,75,0.00,,,0.00,0,weatherlink.com 1.10,2013-02-27 07:58:00,